Wetterdaten: Mittwoch, 25.09.2013
Datum Zeit Temperatur Luftfeuchte Luftdruck Regen Wind Richtung Richtung Taupunkt Windchill Windben
25.09.2013 00:00 7,7 C 91 % 1017,2 hPa 0,0 l/m 0,0 km/h (0 Bft) NO 45 6,3 C 8,3 C 0,0 km/h (0 Bft)
25.09.2013 00:05 7,8 C 91 % 1017,2 hPa 0,0 l/m 0,0 km/h (0 Bft) NO 45 6,4 C 8,2 C 0,0 km/h (0 Bft)
25.09.2013 00:10 8,4 C 91 % 1017,0 hPa 0,0 l/m 0,0 km/h (0 Bft) O-SO 112 7,0 C 8,2 C 0,0 km/h (0 Bft)
25.09.2013 00:15 8,2 C 91 % 1017,0 hPa 0,0 l/m 0,0 km/h (0 Bft) W-SW 247 6,8 C 8,2 C 0,0 km/h (0 Bft)
25.09.2013 00:20 7,8 C 91 % 1017,0 hPa 0,0 l/m 0,0 km/h (0 Bft) N-NW 337 6,4 C 8,1 C 0,0 km/h (0 Bft)
25.09.2013 00:25 8,1 C 91 % 1017,0 hPa 0,0 l/m 0,0 km/h (0 Bft) NO 45 6,7 C 8,0 C 0,0 km/h (0 Bft)
25.09.2013 00:30 8,2 C 92 % 1016,8 hPa 0,0 l/m 0,3 km/h (0 Bft) N-NO 22 7,0 C 8,0 C 0,0 km/h (0 Bft)
25.09.2013 00:35 7,9 C 92 % 1016,8 hPa 0,0 l/m 0,3 km/h (0 Bft) N 360 6,7 C 7,9 C 0,0 km/h (0 Bft)
25.09.2013 00:40 8,0 C 92 % 1016,8 hPa 0,0 l/m 0,2 km/h (0 Bft) NO 45 6,8 C 7,8 C 0,0 km/h (0 Bft)
25.09.2013 00:45 7,8 C 92 % 1016,8 hPa 0,0 l/m 0,2 km/h (0 Bft) N-NO 22 6,6 C 7,8 C 0,0 km/h (0 Bft)
25.09.2013 00:50 7,5 C 92 % 1017,0 hPa 0,0 l/m 0,3 km/h (0 Bft) S-SO 157 6,3 C 7,7 C 0,0 km/h (0 Bft)
25.09.2013 00:55 7,5 C 92 % 1017,0 hPa 0,0 l/m 0,3 km/h (0 Bft) O-NO 67 6,3 C 7,7 C 0,0 km/h (0 Bft)
25.09.2013 01:00 7,4 C 92 % 1017,0 hPa 0,0 l/m 0,0 km/h (0 Bft) O-NO 67 6,2 C 7,5 C 0,0 km/h (0 Bft)
25.09.2013 01:05 7,3 C 92 % 1017,0 hPa 0,0 l/m 0,0 km/h (0 Bft) N-NW 337 6,1 C 7,5 C 0,0 km/h (0 Bft)
25.09.2013 01:10 7,0 C 92 % 1017,0 hPa 0,0 l/m 0,2 km/h (0 Bft) W 270 5,8 C 7,5 C 0,0 km/h (0 Bft)
25.09.2013 01:15 6,9 C 92 % 1017,0 hPa 0,0 l/m 0,2 km/h (0 Bft) W 270 5,7 C 7,3 C 0,0 km/h (0 Bft)
25.09.2013 01:20 6,9 C 92 % 1017,0 hPa 0,0 l/m 0,2 km/h (0 Bft) N-NO 22 5,7 C 7,1 C 3,9 km/h (1 Bft)
25.09.2013 01:25 7,0 C 92 % 1017,0 hPa 0,0 l/m 0,6 km/h (0 Bft) NO 45 5,8 C 7,1 C 1,9 km/h (1 Bft)
25.09.2013 01:30 6,8 C 92 % 1017,1 hPa 0,0 l/m 0,6 km/h (0 Bft) NO 45 5,6 C 7,1 C 1,9 km/h (1 Bft)
25.09.2013 01:35 6,8 C 92 % 1017,1 hPa 0,0 l/m 0,2 km/h (0 Bft) N-NO 22 5,6 C 7,1 C 0,0 km/h (0 Bft)
25.09.2013 01:40 6,8 C 92 % 1017,1 hPa 0,0 l/m 0,2 km/h (0 Bft) N-NO 22 5,6 C 6,9 C 0,0 km/h (0 Bft)
25.09.2013 01:45 7,0 C 92 % 1017,1 hPa 0,0 l/m 0,0 km/h (0 Bft) N 360 5,8 C 6,9 C 0,0 km/h (0 Bft)
25.09.2013 01:50 6,9 C 92 % 1017,1 hPa 0,0 l/m 0,2 km/h (0 Bft) O 90 5,7 C 6,9 C 0,0 km/h (0 Bft)
25.09.2013 01:55 6,8 C 92 % 1017,1 hPa 0,0 l/m 0,2 km/h (0 Bft) NO 45 5,6 C 6,8 C 0,0 km/h (0 Bft)
25.09.2013 02:00 6,5 C 92 % 1017,1 hPa 0,0 l/m 0,2 km/h (0 Bft) O-NO 67 5,3 C 6,6 C 1,6 km/h (1 Bft)
25.09.2013 02:05 6,7 C 92 % 1017,1 hPa 0,0 l/m 0,2 km/h (0 Bft) NO 45 5,5 C 6,6 C 0,0 km/h (0 Bft)
25.09.2013 02:10 6,3 C 92 % 1017,1 hPa 0,0 l/m 0,2 km/h (0 Bft) N-NO 22 5,1 C 6,7 C 0,0 km/h (0 Bft)
25.09.2013 02:15 6,2 C 92 % 1017,1 hPa 0,0 l/m 0,0 km/h (0 Bft) N-NO 22 5,0 C 6,6 C 0,0 km/h (0 Bft)
25.09.2013 02:20 6,1 C 92 % 1017,1 hPa 0,0 l/m 0,0 km/h (0 Bft) NO 45 4,9 C 6,5 C 0,0 km/h (0 Bft)
25.09.2013 02:25 6,4 C 92 % 1017,1 hPa 0,0 l/m 0,0 km/h (0 Bft) N-NO 22 5,2 C 6,4 C 0,0 km/h (0 Bft)
25.09.2013 02:30 6,2 C 92 % 1017,0 hPa 0,0 l/m 0,0 km/h (0 Bft) N-NO 22 5,0 C 6,4 C 0,0 km/h (0 Bft)
25.09.2013 02:35 6,1 C 92 % 1017,0 hPa 0,0 l/m 0,0 km/h (0 Bft) N-NO 22 4,9 C 6,3 C 0,0 km/h (0 Bft)
25.09.2013 02:40 6,1 C 92 % 1017,0 hPa 0,0 l/m 0,0 km/h (0 Bft) N-NO 22 4,9 C 6,2 C 0,0 km/h (0 Bft)
25.09.2013 02:45 6,1 C 92 % 1017,0 hPa 0,0 l/m 0,0 km/h (0 Bft) N 360 4,9 C 6,2 C 0,0 km/h (0 Bft)
25.09.2013 02:50 5,8 C 93 % 1017,1 hPa 0,0 l/m 0,0 km/h (0 Bft) N 360 4,8 C 6,2 C 0,0 km/h (0 Bft)
25.09.2013 02:55 6,2 C 92 % 1017,1 hPa 0,0 l/m 0,0 km/h (0 Bft) N 360 5,0 C 6,2 C 0,0 km/h (0 Bft)
25.09.2013 03:00 6,0 C 92 % 1017,1 hPa 0,0 l/m 0,0 km/h (0 Bft) NO 45 4,8 C 6,2 C 1,9 km/h (1 Bft)
25.09.2013 03:05 6,0 C 92 % 1017,1 hPa 0,0 l/m 0,0 km/h (0 Bft) O-NO 67 4,8 C 6,2 C 0,0 km/h (0 Bft)
25.09.2013 03:10 5,9 C 94 % 1016,9 hPa 0,0 l/m 0,0 km/h (0 Bft) NO 45 5,0 C 6,2 C 0,0 km/h (0 Bft)
25.09.2013 03:15 5,8 C 94 % 1016,9 hPa 0,0 l/m 0,2 km/h (0 Bft) N-NO 22 4,9 C 6,2 C 0,0 km/h (0 Bft)
25.09.2013 03:20 5,7 C 94 % 1016,9 hPa 0,0 l/m 0,2 km/h (0 Bft) W-SW 247 4,8 C 6,2 C 0,0 km/h (0 Bft)
25.09.2013 03:25 5,6 C 94 % 1016,9 hPa 0,0 l/m 0,0 km/h (0 Bft) W-SW 247 4,7 C 6,2 C 0,0 km/h (0 Bft)
25.09.2013 03:30 5,4 C 93 % 1016,6 hPa 0,0 l/m 0,2 km/h (0 Bft) S-SO 157 4,4 C 6,2 C 1,6 km/h (1 Bft)
25.09.2013 03:35 5,7 C 94 % 1016,6 hPa 0,0 l/m 0,3 km/h (0 Bft) S 180 4,8 C 6,2 C 2,3 km/h (1 Bft)
25.09.2013 03:40 5,8 C 94 % 1016,6 hPa 0,0 l/m 0,5 km/h (0 Bft) NO 45 4,9 C 6,6 C 0,0 km/h (0 Bft)
25.09.2013 03:45 6,0 C 93 % 1016,6 hPa 0,0 l/m 0,3 km/h (0 Bft) W-SW 247 5,0 C 6,6 C 0,0 km/h (0 Bft)
25.09.2013 03:50 6,0 C 93 % 1016,5 hPa 0,0 l/m 0,3 km/h (0 Bft) N-NW 337 5,0 C 6,5 C 0,0 km/h (0 Bft)
25.09.2013 03:55 5,7 C 94 % 1016,5 hPa 0,0 l/m 0,3 km/h (0 Bft) N 360 4,8 C 6,4 C 0,0 km/h (0 Bft)
25.09.2013 04:00 5,7 C 94 % 1016,5 hPa 0,0 l/m 0,0 km/h (0 Bft) N 360 4,8 C 6,2 C 0,0 km/h (0 Bft)
25.09.2013 04:05 5,6 C 94 % 1016,5 hPa 0,0 l/m 0,0 km/h (0 Bft) N-NW 337 4,7 C 6,2 C 0,0 km/h (0 Bft)
25.09.2013 04:10 5,6 C 94 % 1016,2 hPa 0,0 l/m 0,0 km/h (0 Bft) NO 45 4,7 C 5,9 C 0,0 km/h (0 Bft)
25.09.2013 04:15 5,7 C 94 % 1016,2 hPa 0,0 l/m 0,0 km/h (0 Bft) NO 45 4,8 C 5,9 C 0,0 km/h (0 Bft)
25.09.2013 04:20 5,7 C 94 % 1016,2 hPa 0,0 l/m 0,2 km/h (0 Bft) NO 45 4,8 C 5,9 C 0,0 km/h (0 Bft)
25.09.2013 04:25 5,6 C 94 % 1016,2 hPa 0,0 l/m 0,2 km/h (0 Bft) NO 45 4,7 C 5,9 C 0,0 km/h (0 Bft)
25.09.2013 04:30 5,5 C 94 % 1016,2 hPa 0,0 l/m 0,0 km/h (0 Bft) O-SO 112 4,6 C 5,7 C 0,0 km/h (0 Bft)
25.09.2013 04:35 5,3 C 94 % 1016,2 hPa 0,0 l/m 0,0 km/h (0 Bft) W-SW 247 4,4 C 5,6 C 0,0 km/h (0 Bft)
25.09.2013 04:40 5,4 C 94 % 1016,2 hPa 0,0 l/m 0,0 km/h (0 Bft) W 270 4,5 C 5,6 C 0,0 km/h (0 Bft)
25.09.2013 04:45 5,5 C 94 % 1016,2 hPa 0,0 l/m 0,0 km/h (0 Bft) W 270 4,6 C 5,5 C 0,0 km/h (0 Bft)
25.09.2013 04:50 5,7 C 94 % 1015,9 hPa 0,0 l/m 0,0 km/h (0 Bft) O 90 4,8 C 5,5 C 0,0 km/h (0 Bft)
25.09.2013 04:55 5,8 C 94 % 1015,9 hPa 0,0 l/m 0,0 km/h (0 Bft) NO 45 4,9 C 5,6 C 0,0 km/h (0 Bft)
25.09.2013 05:00 5,6 C 94 % 1015,9 hPa 0,0 l/m 0,0 km/h (0 Bft) S-SO 157 4,7 C 5,6 C 1,6 km/h (1 Bft)
25.09.2013 05:05 5,7 C 94 % 1015,9 hPa 0,0 l/m 0,0 km/h (0 Bft) SO 135 4,8 C 5,6 C 0,0 km/h (0 Bft)
25.09.2013 05:10 5,5 C 94 % 1015,9 hPa 0,0 l/m 0,0 km/h (0 Bft) S-SO 157 4,6 C 5,7 C 0,0 km/h (0 Bft)
25.09.2013 05:15 5,5 C 94 % 1015,9 hPa 0,0 l/m 0,0 km/h (0 Bft) S 180 4,6 C 5,6 C 0,0 km/h (0 Bft)
25.09.2013 05:20 5,3 C 94 % 1015,9 hPa 0,0 l/m 0,0 km/h (0 Bft) O-SO 112 4,4 C 5,5 C 0,0 km/h (0 Bft)
25.09.2013 05:25 5,4 C 94 % 1015,9 hPa 0,0 l/m 0,2 km/h (0 Bft) O-SO 112 4,5 C 5,4 C 0,0 km/h (0 Bft)
25.09.2013 05:30 5,4 C 94 % 1015,9 hPa 0,0 l/m 0,2 km/h (0 Bft) O 90 4,5 C 5,3 C 0,0 km/h (0 Bft)
25.09.2013 05:35 5,3 C 94 % 1015,9 hPa 0,0 l/m 0,0 km/h (0 Bft) O-NO 67 4,4 C 5,4 C 0,0 km/h (0 Bft)
25.09.2013 05:40 4,9 C 94 % 1015,9 hPa 0,0 l/m 0,0 km/h (0 Bft) O 90 4,0 C 5,3 C 0,0 km/h (0 Bft)
25.09.2013 05:45 4,9 C 94 % 1015,9 hPa 0,0 l/m 0,0 km/h (0 Bft) O-NO 67 4,0 C 5,3 C 0,0 km/h (0 Bft)
25.09.2013 05:50 4,8 C 94 % 1015,8 hPa 0,0 l/m 0,0 km/h (0 Bft) O-NO 67 3,9 C 5,0 C 0,0 km/h (0 Bft)
25.09.2013 05:55 5,0 C 94 % 1015,8 hPa 0,0 l/m 0,0 km/h (0 Bft) O-NO 67 4,1 C 5,0 C 0,0 km/h (0 Bft)
25.09.2013 06:00 5,0 C 94 % 1015,8 hPa 0,0 l/m 0,0 km/h (0 Bft) O-NO 67 4,1 C 5,1 C 0,0 km/h (0 Bft)
25.09.2013 06:05 5,0 C 94 % 1015,8 hPa 0,0 l/m 0,0 km/h (0 Bft) O-NO 67 4,1 C 5,2 C 0,0 km/h (0 Bft)
25.09.2013 06:10 4,9 C 95 % 1015,8 hPa 0,0 l/m 0,0 km/h (0 Bft) S 180 4,2 C 5,3 C 0,0 km/h (0 Bft)
25.09.2013 06:15 5,0 C 94 % 1015,8 hPa 0,0 l/m 0,2 km/h (0 Bft) S 180 4,1 C 5,3 C 0,0 km/h (0 Bft)
25.09.2013 06:20 5,3 C 95 % 1015,8 hPa 0,0 l/m 0,2 km/h (0 Bft) O-SO 112 4,6 C 5,4 C 0,0 km/h (0 Bft)
25.09.2013 06:25 5,6 C 95 % 1015,8 hPa 0,0 l/m 0,2 km/h (0 Bft) S-SW 202 4,9 C 5,5 C 1,9 km/h (1 Bft)
25.09.2013 06:30 5,5 C 95 % 1015,8 hPa 0,0 l/m 0,2 km/h (0 Bft) O-SO 112 4,8 C 5,6 C 0,0 km/h (0 Bft)
25.09.2013 06:35 5,5 C 95 % 1015,8 hPa 0,0 l/m 0,2 km/h (0 Bft) S-SO 157 4,8 C 5,6 C 0,0 km/h (0 Bft)
25.09.2013 06:40 5,5 C 95 % 1015,8 hPa 0,0 l/m 0,2 km/h (0 Bft) NO 45 4,8 C 5,7 C 0,0 km/h (0 Bft)
25.09.2013 06:45 5,5 C 95 % 1015,8 hPa 0,0 l/m 0,2 km/h (0 Bft) N-NW 337 4,8 C 5,7 C 0,0 km/h (0 Bft)
25.09.2013 06:50 5,5 C 95 % 1015,9 hPa 0,0 l/m 0,2 km/h (0 Bft) S-SW 202 4,8 C 5,8 C 0,0 km/h (0 Bft)
25.09.2013 06:55 5,4 C 95 % 1015,9 hPa 0,0 l/m 0,2 km/h (0 Bft) S-SW 202 4,7 C 5,8 C 1,8 km/h (1 Bft)
25.09.2013 07:00 5,3 C 95 % 1015,9 hPa 0,0 l/m 0,2 km/h (0 Bft) S 180 4,6 C 5,7 C 0,0 km/h (0 Bft)
25.09.2013 07:05 5,2 C 95 % 1015,9 hPa 0,0 l/m 0,2 km/h (0 Bft) S-SO 157 4,5 C 5,7 C 0,0 km/h (0 Bft)
25.09.2013 07:10 5,1 C 95 % 1015,8 hPa 0,0 l/m 0,0 km/h (0 Bft) N-NO 22 4,4 C 5,6 C 0,0 km/h (0 Bft)
25.09.2013 07:15 5,4 C 95 % 1015,8 hPa 0,0 l/m 0,0 km/h (0 Bft) NO 45 4,7 C 5,5 C 0,0 km/h (0 Bft)
25.09.2013 07:20 5,4 C 95 % 1015,8 hPa 0,0 l/m 0,0 km/h (0 Bft) W 270 4,7 C 5,5 C 0,0 km/h (0 Bft)
25.09.2013 07:25 5,3 C 95 % 1015,8 hPa 0,0 l/m 0,0 km/h (0 Bft) W 270 4,6 C 5,5 C 0,0 km/h (0 Bft)
25.09.2013 07:30 5,5 C 95 % 1015,8 hPa 0,0 l/m 0,0 km/h (0 Bft) N-NO 22 4,8 C 5,5 C 0,0 km/h (0 Bft)
25.09.2013 07:35 5,3 C 95 % 1015,8 hPa 0,0 l/m 0,0 km/h (0 Bft) N 360 4,6 C 5,5 C 0,0 km/h (0 Bft)
25.09.2013 07:40 5,4 C 95 % 1015,8 hPa 0,0 l/m 0,0 km/h (0 Bft) N 360 4,7 C 5,6 C 0,0 km/h (0 Bft)
25.09.2013 07:45 5,3 C 95 % 1015,8 hPa 0,0 l/m 0,0 km/h (0 Bft) N 360 4,6 C 5,6 C 0,0 km/h (0 Bft)
25.09.2013 07:50 5,3 C 95 % 1015,8 hPa 0,0 l/m 0,0 km/h (0 Bft) W-NW 292 4,6 C 5,6 C 0,0 km/h (0 Bft)
25.09.2013 07:55 5,2 C 95 % 1015,8 hPa 0,0 l/m 0,0 km/h (0 Bft) N-NO 22 4,5 C 5,6 C 0,0 km/h (0 Bft)
25.09.2013 08:00 5,4 C 95 % 1015,8 hPa 0,0 l/m 0,0 km/h (0 Bft) N-NO 22 4,7 C 5,7 C 0,0 km/h (0 Bft)
25.09.2013 08:05 5,7 C 95 % 1015,8 hPa 0,0 l/m 0,2 km/h (0 Bft) N-NO 22 5,0 C 5,8 C 2,4 km/h (1 Bft)
25.09.2013 08:10 5,9 C 95 % 1015,8 hPa 0,0 l/m 0,6 km/h (0 Bft) O-SO 112 5,2 C 6,1 C 0,0 km/h (0 Bft)
25.09.2013 08:15 5,9 C 95 % 1015,8 hPa 0,0 l/m 0,5 km/h (0 Bft) O-NO 67 5,2 C 6,2 C 0,0 km/h (0 Bft)
25.09.2013 08:20 6,1 C 94 % 1015,8 hPa 0,0 l/m 0,0 km/h (0 Bft) O-NO 67 5,2 C 6,3 C 0,0 km/h (0 Bft)
25.09.2013 08:25 6,2 C 95 % 1015,8 hPa 0,0 l/m 0,0 km/h (0 Bft) O-NO 67 5,5 C 6,4 C 0,0 km/h (0 Bft)
25.09.2013 08:30 6,3 C 95 % 1015,6 hPa 0,0 l/m 0,0 km/h (0 Bft) O-NO 67 5,6 C 7,6 C 0,0 km/h (0 Bft)
25.09.2013 08:35 6,6 C 95 % 1015,6 hPa 0,0 l/m 0,2 km/h (0 Bft) NO 45 5,9 C 9,2 C 0,0 km/h (0 Bft)
25.09.2013 08:40 6,9 C 95 % 1015,6 hPa 0,0 l/m 0,3 km/h (0 Bft) O-NO 67 6,2 C 11,1 C 0,0 km/h (0 Bft)
25.09.2013 08:45 7,0 C 94 % 1015,6 hPa 0,0 l/m 0,3 km/h (0 Bft) O-NO 67 6,1 C 11,6 C 0,0 km/h (0 Bft)
25.09.2013 08:50 7,3 C 94 % 1015,8 hPa 0,0 l/m 0,3 km/h (0 Bft) O-NO 67 6,4 C 13,5 C 2,4 km/h (1 Bft)
25.09.2013 08:55 7,6 C 95 % 1015,8 hPa 0,0 l/m 0,2 km/h (0 Bft) O 90 6,9 C 14,1 C 0,0 km/h (0 Bft)
25.09.2013 09:00 7,9 C 95 % 1015,8 hPa 0,0 l/m 0,5 km/h (0 Bft) O-NO 67 7,1 C 15,0 C 0,0 km/h (0 Bft)
25.09.2013 09:05 7,9 C 95 % 1015,8 hPa 0,0 l/m 0,2 km/h (0 Bft) O 90 7,1 C 15,1 C 0,0 km/h (0 Bft)
25.09.2013 09:10 8,2 C 94 % 1015,9 hPa 0,0 l/m 0,6 km/h (0 Bft) NO 45 7,3 C 16,0 C 1,6 km/h (1 Bft)
25.09.2013 09:15 9,3 C 94 % 1015,9 hPa 0,0 l/m 0,6 km/h (0 Bft) O-NO 67 8,4 C 16,4 C 0,0 km/h (0 Bft)
25.09.2013 09:20 11,0 C 94 % 1015,9 hPa 0,0 l/m 0,3 km/h (0 Bft) NO 45 10,1 C 17,1 C 0,0 km/h (0 Bft)
25.09.2013 09:25 12,3 C 93 % 1015,9 hPa 0,0 l/m 0,2 km/h (0 Bft) NO 45 11,2 C 17,3 C 0,0 km/h (0 Bft)
25.09.2013 09:30 13,4 C 90 % 1016,0 hPa 0,0 l/m 0,8 km/h (0 Bft) O 90 11,8 C 17,9 C 0,0 km/h (0 Bft)
25.09.2013 09:35 13,3 C 88 % 1016,0 hPa 0,0 l/m 1,3 km/h (1 Bft) O-NO 67 11,4 C 18,4 C 2,3 km/h (1 Bft)
25.09.2013 09:40 13,5 C 86 % 1016,0 hPa 0,0 l/m 1,1 km/h (1 Bft) O 90 11,2 C 18,8 C 0,0 km/h (0 Bft)
25.09.2013 09:45 14,3 C 84 % 1016,0 hPa 0,0 l/m 1,3 km/h (1 Bft) O-NO 67 11,6 C 19,1 C 0,0 km/h (0 Bft)
25.09.2013 09:50 15,3 C 81 % 1016,2 hPa 0,0 l/m 0,8 km/h (0 Bft) O-SO 112 12,1 C 19,7 C 0,0 km/h (0 Bft)
25.09.2013 09:55 15,7 C 78 % 1016,2 hPa 0,0 l/m 1,1 km/h (1 Bft) O-NO 67 11,9 C 20,1 C 2,3 km/h (1 Bft)
25.09.2013 10:00 16,3 C 78 % 1016,2 hPa 0,0 l/m 1,3 km/h (1 Bft) N-NO 22 12,5 C 20,5 C 0,0 km/h (0 Bft)
25.09.2013 10:05 17,2 C 79 % 1016,2 hPa 0,0 l/m 1,3 km/h (1 Bft) O 90 13,5 C 20,7 C 0,0 km/h (0 Bft)
25.09.2013 10:10 17,5 C 78 % 1016,5 hPa 0,0 l/m 0,6 km/h (0 Bft) O-NO 67 13,6 C 21,7 C 2,3 km/h (1 Bft)
25.09.2013 10:15 17,6 C 76 % 1016,5 hPa 0,0 l/m 1,4 km/h (1 Bft) O-NO 67 13,3 C 22,0 C 2,7 km/h (1 Bft)
25.09.2013 10:20 18,0 C 73 % 1016,5 hPa 0,0 l/m 1,4 km/h (1 Bft) O-NO 67 13,1 C 22,2 C 1,8 km/h (1 Bft)
25.09.2013 10:25 18,1 C 73 % 1016,5 hPa 0,0 l/m 1,3 km/h (1 Bft) O 90 13,2 C 22,3 C 2,1 km/h (1 Bft)
25.09.2013 10:30 18,6 C 69 % 1016,6 hPa 0,0 l/m 0,8 km/h (0 Bft) O-NO 67 12,8 C 22,5 C 2,1 km/h (1 Bft)
25.09.2013 10:35 18,6 C 68 % 1016,6 hPa 0,0 l/m 0,6 km/h (0 Bft) N-NO 22 12,6 C 22,2 C 0,0 km/h (0 Bft)
25.09.2013 10:40 19,0 C 66 % 1016,6 hPa 0,0 l/m 1,0 km/h (0 Bft) O-NO 67 12,5 C 21,6 C 1,8 km/h (1 Bft)
25.09.2013 10:45 18,9 C 65 % 1016,6 hPa 0,0 l/m 0,8 km/h (0 Bft) NO 45 12,2 C 21,3 C 0,0 km/h (0 Bft)
25.09.2013 10:50 19,1 C 62 % 1016,6 hPa 0,0 l/m 0,5 km/h (0 Bft) O-SO 112 11,6 C 20,0 C 0,0 km/h (0 Bft)
25.09.2013 10:55 19,3 C 59 % 1016,6 hPa 0,0 l/m 0,6 km/h (0 Bft) O 90 11,1 C 19,5 C 2,9 km/h (1 Bft)
25.09.2013 11:00 19,5 C 56 % 1016,6 hPa 0,0 l/m 1,4 km/h (1 Bft) O 90 10,5 C 18,6 C 2,9 km/h (1 Bft)
25.09.2013 11:05 20,0 C 56 % 1016,6 hPa 0,0 l/m 1,6 km/h (1 Bft) NO 45 11,0 C 18,5 C 0,0 km/h (0 Bft)
25.09.2013 11:10 20,8 C 53 % 1017,1 hPa 0,0 l/m 2,4 km/h (1 Bft) W-SW 247 10,9 C 19,1 C 8,2 km/h (2 Bft)
25.09.2013 11:15 21,3 C 53 % 1017,1 hPa 0,0 l/m 2,6 km/h (1 Bft) SW 225 11,3 C 19,8 C 4,2 km/h (1 Bft)
25.09.2013 11:20 21,4 C 48 % 1017,1 hPa 0,0 l/m 4,3 km/h (1 Bft) S 180 9,9 C 20,8 C 7,6 km/h (2 Bft)
25.09.2013 11:25 21,8 C 49 % 1017,1 hPa 0,0 l/m 4,3 km/h (1 Bft) SW 225 10,6 C 21,2 C 4,7 km/h (1 Bft)
25.09.2013 11:30 21,9 C 48 % 1017,4 hPa 0,0 l/m 5,1 km/h (1 Bft) S-SO 157 10,4 C 22,4 C 9,5 km/h (2 Bft)
25.09.2013 11:35 21,7 C 47 % 1017,4 hPa 0,0 l/m 5,8 km/h (2 Bft) S-SO 157 9,9 C 22,8 C 6,8 km/h (2 Bft)
25.09.2013 11:40 22,1 C 48 % 1017,4 hPa 0,0 l/m 4,7 km/h (1 Bft) W-SW 247 10,6 C 23,5 C 10,5 km/h (2 Bft)
25.09.2013 11:45 21,5 C 46 % 1017,4 hPa 0,0 l/m 4,3 km/h (1 Bft) W-SW 247 9,4 C 23,7 C 6,8 km/h (2 Bft)
25.09.2013 11:50 21,9 C 46 % 1017,1 hPa 0,0 l/m 2,6 km/h (1 Bft) O-NO 67 9,7 C 24,8 C 2,9 km/h (1 Bft)
25.09.2013 11:55 21,9 C 46 % 1017,1 hPa 0,0 l/m 2,4 km/h (1 Bft) O-SO 112 9,7 C 25,1 C 4,5 km/h (1 Bft)
25.09.2013 12:00 22,2 C 45 % 1017,1 hPa 0,0 l/m 2,4 km/h (1 Bft) S-SO 157 9,7 C 25,2 C 5,0 km/h (1 Bft)
25.09.2013 12:05 22,1 C 44 % 1017,1 hPa 0,0 l/m 3,2 km/h (1 Bft) S-SW 202 9,3 C 25,2 C 4,5 km/h (1 Bft)
25.09.2013 12:10 22,5 C 45 % 1017,1 hPa 0,0 l/m 2,7 km/h (1 Bft) O-SO 112 10,0 C 25,7 C 3,7 km/h (1 Bft)
25.09.2013 12:15 22,7 C 46 % 1017,1 hPa 0,0 l/m 1,9 km/h (1 Bft) S-SW 202 10,5 C 26,5 C 7,2 km/h (2 Bft)
25.09.2013 12:20 23,3 C 45 % 1017,1 hPa 0,0 l/m 4,0 km/h (1 Bft) W-SW 247 10,7 C 26,0 C 10,0 km/h (2 Bft)
25.09.2013 12:25 23,1 C 41 % 1017,1 hPa 0,0 l/m 5,0 km/h (1 Bft) W-SW 247 9,1 C 25,8 C 8,5 km/h (2 Bft)
25.09.2013 12:30 23,0 C 40 % 1017,0 hPa 0,0 l/m 6,1 km/h (2 Bft) S 180 8,7 C 25,2 C 9,2 km/h (2 Bft)
25.09.2013 12:35 22,2 C 45 % 1017,0 hPa 0,0 l/m 5,8 km/h (2 Bft) W-SW 247 9,7 C 25,1 C 6,8 km/h (2 Bft)
25.09.2013 12:40 21,7 C 49 % 1017,0 hPa 0,0 l/m 5,5 km/h (1 Bft) W-SW 247 10,5 C 25,2 C 7,7 km/h (2 Bft)
25.09.2013 12:45 21,3 C 48 % 1017,0 hPa 0,0 l/m 5,1 km/h (1 Bft) S 180 9,8 C 25,3 C 7,7 km/h (2 Bft)
25.09.2013 12:50 21,1 C 51 % 1017,3 hPa 0,0 l/m 6,4 km/h (2 Bft) S-SW 202 10,6 C 25,0 C 13,4 km/h (3 Bft)
25.09.2013 12:55 20,9 C 49 % 1017,3 hPa 0,0 l/m 6,8 km/h (2 Bft) S 180 9,8 C 24,9 C 8,4 km/h (2 Bft)
25.09.2013 13:00 20,5 C 53 % 1017,3 hPa 0,0 l/m 6,0 km/h (2 Bft) SO 135 10,6 C 24,6 C 5,6 km/h (1 Bft)
25.09.2013 13:05 20,2 C 55 % 1017,3 hPa 0,0 l/m 6,1 km/h (2 Bft) S-SO 157 10,9 C 24,5 C 8,9 km/h (2 Bft)
25.09.2013 13:10 20,5 C 56 % 1017,1 hPa 0,0 l/m 6,4 km/h (2 Bft) S-SW 202 11,4 C 24,5 C 7,2 km/h (2 Bft)
25.09.2013 13:15 20,5 C 56 % 1017,1 hPa 0,0 l/m 6,0 km/h (2 Bft) S 180 11,4 C 24,7 C 8,7 km/h (2 Bft)
25.09.2013 13:20 20,6 C 56 % 1017,1 hPa 0,0 l/m 6,3 km/h (2 Bft) W-SW 247 11,5 C 24,7 C 6,6 km/h (2 Bft)
25.09.2013 13:25 20,7 C 55 % 1017,1 hPa 0,0 l/m 6,6 km/h (2 Bft) S-SW 202 11,3 C 24,8 C 7,4 km/h (2 Bft)
25.09.2013 13:30 20,8 C 56 % 1017,2 hPa 0,0 l/m 6,6 km/h (2 Bft) S-SW 202 11,7 C 24,9 C 7,2 km/h (2 Bft)
25.09.2013 13:35 21,4 C 55 % 1017,2 hPa 0,0 l/m 6,8 km/h (2 Bft) W-SW 247 12,0 C 24,9 C 10,0 km/h (2 Bft)
25.09.2013 13:40 21,7 C 49 % 1017,2 hPa 0,0 l/m 7,2 km/h (2 Bft) S-SW 202 10,5 C 24,8 C 17,1 km/h (3 Bft)
25.09.2013 13:45 21,7 C 50 % 1017,2 hPa 0,0 l/m 7,9 km/h (2 Bft) S 180 10,8 C 24,5 C 10,8 km/h (2 Bft)
25.09.2013 13:50 21,9 C 49 % 1017,1 hPa 0,0 l/m 8,4 km/h (2 Bft) SO 135 10,7 C 23,9 C 6,4 km/h (2 Bft)
25.09.2013 13:55 21,9 C 49 % 1017,1 hPa 0,0 l/m 8,2 km/h (2 Bft) SW 225 10,7 C 24,1 C 7,1 km/h (2 Bft)
25.09.2013 14:00 22,1 C 49 % 1017,1 hPa 0,0 l/m 7,2 km/h (2 Bft) S 180 10,9 C 24,3 C 5,1 km/h (1 Bft)
25.09.2013 14:05 22,7 C 49 % 1017,1 hPa 0,0 l/m 7,4 km/h (2 Bft) W-SW 247 11,4 C 24,3 C 7,1 km/h (2 Bft)
25.09.2013 14:10 22,4 C 46 % 1017,1 hPa 0,0 l/m 7,4 km/h (2 Bft) S 180 10,2 C 24,9 C 18,3 km/h (3 Bft)
25.09.2013 14:15 22,2 C 47 % 1017,1 hPa 0,0 l/m 8,5 km/h (2 Bft) S 180 10,3 C 24,3 C 14,5 km/h (3 Bft)
25.09.2013 14:20 22,3 C 47 % 1017,1 hPa 0,0 l/m 7,9 km/h (2 Bft) S 180 10,4 C 24,4 C 7,6 km/h (2 Bft)
25.09.2013 14:25 22,1 C 45 % 1017,1 hPa 0,0 l/m 6,9 km/h (2 Bft) S 180 9,6 C 24,9 C 7,7 km/h (2 Bft)
25.09.2013 14:30 21,2 C 47 % 1016,9 hPa 0,0 l/m 9,0 km/h (2 Bft) S-SW 202 9,4 C 23,9 C 18,8 km/h (3 Bft)
25.09.2013 14:35 21,0 C 48 % 1016,9 hPa 0,0 l/m 9,2 km/h (2 Bft) W-SW 247 9,6 C 24,0 C 6,4 km/h (2 Bft)
25.09.2013 14:40 20,8 C 48 % 1016,9 hPa 0,0 l/m 8,4 km/h (2 Bft) S-SW 202 9,4 C 24,2 C 7,7 km/h (2 Bft)
25.09.2013 14:45 20,8 C 49 % 1016,9 hPa 0,0 l/m 8,7 km/h (2 Bft) S 180 9,7 C 24,2 C 19,8 km/h (3 Bft)
25.09.2013 14:50 20,3 C 48 % 1016,9 hPa 0,0 l/m 9,3 km/h (2 Bft) S-SW 202 8,9 C 23,4 C 8,9 km/h (2 Bft)
25.09.2013 14:55 20,2 C 49 % 1016,9 hPa 0,0 l/m 9,7 km/h (2 Bft) S 180 9,1 C 23,2 C 7,1 km/h (2 Bft)
25.09.2013 15:00 20,2 C 49 % 1016,9 hPa 0,0 l/m 9,2 km/h (2 Bft) SW 225 9,1 C 23,7 C 6,8 km/h (2 Bft)
25.09.2013 15:05 20,2 C 49 % 1016,9 hPa 0,0 l/m 9,0 km/h (2 Bft) S 180 9,1 C 23,8 C 10,8 km/h (2 Bft)
25.09.2013 15:10 20,2 C 49 % 1016,9 hPa 0,0 l/m 8,4 km/h (2 Bft) W-SW 247 9,1 C 24,2 C 7,7 km/h (2 Bft)
25.09.2013 15:15 20,1 C 50 % 1016,9 hPa 0,0 l/m 8,0 km/h (2 Bft) SW 225 9,3 C 24,4 C 10,3 km/h (2 Bft)
25.09.2013 15:20 19,7 C 52 % 1016,9 hPa 0,0 l/m 7,6 km/h (2 Bft) SO 135 9,6 C 24,4 C 6,4 km/h (2 Bft)
25.09.2013 15:25 19,7 C 52 % 1016,9 hPa 0,0 l/m 7,2 km/h (2 Bft) S 180 9,6 C 24,6 C 11,3 km/h (2 Bft)
25.09.2013 15:30 19,6 C 54 % 1016,6 hPa 0,0 l/m 6,3 km/h (2 Bft) S-SW 202 10,0 C 25,2 C 8,0 km/h (2 Bft)
25.09.2013 15:35 19,5 C 54 % 1016,6 hPa 0,0 l/m 6,6 km/h (2 Bft) S 180 9,9 C 25,2 C 5,3 km/h (1 Bft)
25.09.2013 15:40 19,6 C 53 % 1016,6 hPa 0,0 l/m 7,4 km/h (2 Bft) S-SW 202 9,8 C 25,0 C 10,5 km/h (2 Bft)
25.09.2013 15:45 19,7 C 54 % 1016,6 hPa 0,0 l/m 7,1 km/h (2 Bft) S 180 10,1 C 25,0 C 8,0 km/h (2 Bft)
25.09.2013 15:50 19,8 C 52 % 1016,3 hPa 0,0 l/m 7,7 km/h (2 Bft) S 180 9,7 C 24,9 C 8,7 km/h (2 Bft)
25.09.2013 15:55 19,7 C 53 % 1016,3 hPa 0,0 l/m 8,4 km/h (2 Bft) S-SO 157 9,8 C 24,4 C 8,5 km/h (2 Bft)
25.09.2013 16:00 19,6 C 54 % 1016,3 hPa 0,0 l/m 7,4 km/h (2 Bft) W-SW 247 10,0 C 24,6 C 20,9 km/h (4 Bft)
25.09.2013 16:05 19,6 C 55 % 1016,3 hPa 0,0 l/m 7,7 km/h (2 Bft) S-SW 202 10,3 C 24,4 C 7,4 km/h (2 Bft)
25.09.2013 16:10 19,5 C 55 % 1015,9 hPa 0,0 l/m 7,7 km/h (2 Bft) N-NW 337 10,2 C 24,3 C 10,0 km/h (2 Bft)
25.09.2013 16:15 19,5 C 55 % 1015,9 hPa 0,0 l/m 7,7 km/h (2 Bft) S-SW 202 10,2 C 24,2 C 14,3 km/h (3 Bft)
25.09.2013 16:20 19,5 C 55 % 1015,9 hPa 0,0 l/m 7,7 km/h (2 Bft) S 180 10,2 C 24,2 C 11,1 km/h (2 Bft)
25.09.2013 16:25 19,7 C 55 % 1015,9 hPa 0,0 l/m 7,7 km/h (2 Bft) S 180 10,4 C 24,0 C 8,7 km/h (2 Bft)
25.09.2013 16:30 20,1 C 54 % 1015,4 hPa 0,0 l/m 9,2 km/h (2 Bft) S-SW 202 10,5 C 23,5 C 11,3 km/h (2 Bft)
25.09.2013 16:35 20,2 C 53 % 1015,4 hPa 0,0 l/m 8,4 km/h (2 Bft) SO 135 10,3 C 23,9 C 7,1 km/h (2 Bft)
25.09.2013 16:40 20,4 C 52 % 1015,4 hPa 0,0 l/m 8,4 km/h (2 Bft) S-SW 202 10,2 C 23,8 C 7,7 km/h (2 Bft)
25.09.2013 16:45 20,3 C 53 % 1015,4 hPa 0,0 l/m 8,9 km/h (2 Bft) S-SW 202 10,4 C 23,5 C 9,5 km/h (2 Bft)
25.09.2013 16:50 20,2 C 49 % 1015,3 hPa 0,0 l/m 9,5 km/h (2 Bft) SO 135 9,1 C 23,1 C 22,2 km/h (4 Bft)
25.09.2013 16:55 19,9 C 51 % 1015,3 hPa 0,0 l/m 10,8 km/h (2 Bft) S-SW 202 9,5 C 22,4 C 12,2 km/h (2 Bft)
25.09.2013 17:00 19,6 C 54 % 1015,3 hPa 0,0 l/m 11,3 km/h (2 Bft) S 180 10,0 C 22,1 C 22,9 km/h (4 Bft)
25.09.2013 17:05 19,4 C 55 % 1015,3 hPa 0,0 l/m 10,6 km/h (2 Bft) S-SW 202 10,1 C 22,1 C 7,2 km/h (2 Bft)
25.09.2013 17:10 19,4 C 56 % 1015,8 hPa 0,0 l/m 8,7 km/h (2 Bft) S-SO 157 10,4 C 22,7 C 11,3 km/h (2 Bft)
25.09.2013 17:15 19,2 C 55 % 1015,8 hPa 0,0 l/m 8,7 km/h (2 Bft) S 180 9,9 C 22,7 C 11,7 km/h (2 Bft)
25.09.2013 17:20 19,2 C 55 % 1015,8 hPa 0,0 l/m 10,6 km/h (2 Bft) S-SW 202 9,9 C 21,7 C 13,8 km/h (3 Bft)
25.09.2013 17:25 18,9 C 55 % 1015,8 hPa 0,0 l/m 11,6 km/h (2 Bft) S 180 9,7 C 21,3 C 15,8 km/h (3 Bft)
25.09.2013 17:30 18,5 C 57 % 1015,8 hPa 0,0 l/m 11,6 km/h (2 Bft) S 180 9,8 C 19,2 C 21,6 km/h (4 Bft)
25.09.2013 17:35 18,6 C 57 % 1015,8 hPa 0,0 l/m 12,1 km/h (2 Bft) S-SW 202 9,9 C 18,3 C 12,4 km/h (3 Bft)
25.09.2013 17:40 18,2 C 59 % 1015,8 hPa 0,0 l/m 11,9 km/h (2 Bft) SO 135 10,1 C 17,9 C 23,3 km/h (4 Bft)
25.09.2013 17:45 18,2 C 59 % 1015,8 hPa 0,0 l/m 10,9 km/h (2 Bft) S 180 10,1 C 18,0 C 11,6 km/h (2 Bft)
25.09.2013 17:50 18,0 C 60 % 1015,2 hPa 0,0 l/m 10,1 km/h (2 Bft) S 180 10,1 C 17,9 C 8,9 km/h (2 Bft)
25.09.2013 17:55 17,7 C 61 % 1015,2 hPa 0,0 l/m 9,3 km/h (2 Bft) NW 315 10,1 C 18,0 C 5,8 km/h (2 Bft)
25.09.2013 18:00 17,9 C 62 % 1015,2 hPa 0,0 l/m 7,7 km/h (2 Bft) O-NO 67 10,5 C 18,5 C 5,1 km/h (1 Bft)
25.09.2013 18:05 17,7 C 63 % 1015,2 hPa 0,0 l/m 7,2 km/h (2 Bft) S-SW 202 10,6 C 18,7 C 7,7 km/h (2 Bft)
25.09.2013 18:10 17,9 C 63 % 1015,4 hPa 0,0 l/m 6,9 km/h (2 Bft) S 180 10,8 C 19,3 C 12,6 km/h (3 Bft)
25.09.2013 18:15 17,9 C 63 % 1015,4 hPa 0,0 l/m 7,1 km/h (2 Bft) S 180 10,8 C 19,9 C 13,7 km/h (3 Bft)
25.09.2013 18:20 17,7 C 63 % 1015,4 hPa 0,0 l/m 7,1 km/h (2 Bft) S 180 10,6 C 20,3 C 7,2 km/h (2 Bft)
25.09.2013 18:25 17,4 C 65 % 1015,4 hPa 0,0 l/m 6,4 km/h (2 Bft) W 270 10,8 C 20,7 C 7,7 km/h (2 Bft)
25.09.2013 18:30 16,9 C 66 % 1015,2 hPa 0,0 l/m 4,0 km/h (1 Bft) O-SO 112 10,5 C 20,5 C 2,7 km/h (1 Bft)
25.09.2013 18:35 16,9 C 67 % 1015,2 hPa 0,0 l/m 4,7 km/h (1 Bft) S 180 10,7 C 20,1 C 11,3 km/h (2 Bft)
25.09.2013 18:40 16,5 C 67 % 1015,2 hPa 0,0 l/m 5,8 km/h (2 Bft) S 180 10,4 C 19,4 C 7,2 km/h (2 Bft)
25.09.2013 18:45 16,2 C 68 % 1015,2 hPa 0,0 l/m 5,8 km/h (2 Bft) S-SO 157 10,3 C 19,2 C 5,6 km/h (1 Bft)
25.09.2013 18:50 15,8 C 70 % 1015,2 hPa 0,0 l/m 4,5 km/h (1 Bft) S 180 10,3 C 18,6 C 5,3 km/h (1 Bft)
25.09.2013 18:55 15,4 C 70 % 1015,2 hPa 0,0 l/m 4,7 km/h (1 Bft) O-SO 112 10,0 C 18,2 C 9,7 km/h (2 Bft)
25.09.2013 19:00 15,4 C 72 % 1015,2 hPa 0,0 l/m 5,8 km/h (2 Bft) S-SW 202 10,4 C 17,7 C 7,2 km/h (2 Bft)
25.09.2013 19:05 15,2 C 72 % 1015,2 hPa 0,0 l/m 6,1 km/h (2 Bft) S-SO 157 10,2 C 17,5 C 5,8 km/h (2 Bft)
25.09.2013 19:10 15,1 C 72 % 1015,4 hPa 0,0 l/m 4,3 km/h (1 Bft) O-SO 112 10,1 C 16,8 C 4,2 km/h (1 Bft)
25.09.2013 19:15 15,1 C 72 % 1015,4 hPa 0,0 l/m 3,7 km/h (1 Bft) S-SO 157 10,1 C 16,5 C 7,7 km/h (2 Bft)
25.09.2013 19:20 15,0 C 73 % 1015,4 hPa 0,0 l/m 4,0 km/h (1 Bft) SO 135 10,2 C 16,3 C 5,5 km/h (1 Bft)
25.09.2013 19:25 14,8 C 73 % 1015,4 hPa 0,0 l/m 4,5 km/h (1 Bft) S 180 10,0 C 16,2 C 5,6 km/h (1 Bft)
25.09.2013 19:30 14,6 C 74 % 1015,6 hPa 0,0 l/m 3,7 km/h (1 Bft) SO 135 10,0 C 16,0 C 1,8 km/h (1 Bft)
25.09.2013 19:35 14,6 C 75 % 1015,6 hPa 0,0 l/m 3,1 km/h (1 Bft) SO 135 10,2 C 15,8 C 5,3 km/h (1 Bft)
25.09.2013 19:40 14,6 C 75 % 1015,6 hPa 0,0 l/m 3,2 km/h (1 Bft) S 180 10,2 C 15,7 C 4,5 km/h (1 Bft)
25.09.2013 19:45 14,4 C 75 % 1015,6 hPa 0,0 l/m 3,2 km/h (1 Bft) S-SW 202 10,0 C 15,6 C 3,1 km/h (1 Bft)
25.09.2013 19:50 14,2 C 75 % 1015,6 hPa 0,0 l/m 2,3 km/h (1 Bft) S-SO 157 9,8 C 15,4 C 5,0 km/h (1 Bft)
25.09.2013 19:55 14,0 C 76 % 1015,6 hPa 0,0 l/m 2,1 km/h (1 Bft) SO 135 9,8 C 15,2 C 3,2 km/h (1 Bft)
25.09.2013 20:00 14,3 C 77 % 1015,6 hPa 0,0 l/m 2,7 km/h (1 Bft) O 90 10,3 C 15,2 C 3,4 km/h (1 Bft)
25.09.2013 20:05 14,2 C 77 % 1015,6 hPa 0,0 l/m 2,7 km/h (1 Bft) S-SO 157 10,2 C 15,2 C 3,2 km/h (1 Bft)
25.09.2013 20:10 14,4 C 77 % 1015,8 hPa 0,0 l/m 2,9 km/h (1 Bft) SO 135 10,4 C 15,4 C 3,4 km/h (1 Bft)
25.09.2013 20:15 14,4 C 77 % 1015,8 hPa 0,0 l/m 2,7 km/h (1 Bft) SO 135 10,4 C 15,3 C 4,2 km/h (1 Bft)
25.09.2013 20:20 14,7 C 78 % 1015,8 hPa 0,0 l/m 2,6 km/h (1 Bft) S 180 10,9 C 15,3 C 2,4 km/h (1 Bft)
25.09.2013 20:25 14,6 C 78 % 1015,8 hPa 0,0 l/m 2,9 km/h (1 Bft) S-SW 202 10,8 C 15,3 C 8,5 km/h (2 Bft)
25.09.2013 20:30 14,6 C 78 % 1015,8 hPa 0,0 l/m 3,4 km/h (1 Bft) SO 135 10,8 C 15,4 C 5,3 km/h (1 Bft)
25.09.2013 20:35 14,6 C 78 % 1015,8 hPa 0,0 l/m 3,1 km/h (1 Bft) S 180 10,8 C 15,4 C 5,8 km/h (2 Bft)
25.09.2013 20:40 14,5 C 78 % 1015,8 hPa 0,0 l/m 3,4 km/h (1 Bft) S 180 10,7 C 15,4 C 4,7 km/h (1 Bft)
25.09.2013 20:45 14,4 C 78 % 1015,8 hPa 0,0 l/m 3,2 km/h (1 Bft) O-SO 112 10,6 C 15,4 C 2,1 km/h (1 Bft)
25.09.2013 20:50 14,2 C 78 % 1015,9 hPa 0,0 l/m 3,1 km/h (1 Bft) S-SO 157 10,4 C 15,2 C 3,4 km/h (1 Bft)
25.09.2013 20:55 14,0 C 78 % 1015,9 hPa 0,0 l/m 3,1 km/h (1 Bft) S 180 10,2 C 15,2 C 3,4 km/h (1 Bft)
25.09.2013 21:00 13,9 C 79 % 1015,9 hPa 0,0 l/m 2,9 km/h (1 Bft) S-SO 157 10,3 C 15,1 C 4,5 km/h (1 Bft)
25.09.2013 21:05 14,0 C 79 % 1015,9 hPa 0,0 l/m 2,7 km/h (1 Bft) S-SO 157 10,4 C 15,0 C 1,6 km/h (1 Bft)
25.09.2013 21:10 13,8 C 79 % 1016,2 hPa 0,0 l/m 3,5 km/h (1 Bft) S-SO 157 10,2 C 15,0 C 12,1 km/h (2 Bft)
25.09.2013 21:15 13,8 C 80 % 1016,2 hPa 0,0 l/m 3,9 km/h (1 Bft) SO 135 10,4 C 14,9 C 7,4 km/h (2 Bft)
25.09.2013 21:20 13,8 C 80 % 1016,2 hPa 0,0 l/m 3,2 km/h (1 Bft) S 180 10,4 C 14,9 C 3,4 km/h (1 Bft)
25.09.2013 21:25 13,5 C 80 % 1016,2 hPa 0,0 l/m 3,1 km/h (1 Bft) O-SO 112 10,1 C 14,8 C 6,0 km/h (2 Bft)
25.09.2013 21:30 13,7 C 81 % 1016,1 hPa 0,0 l/m 3,7 km/h (1 Bft) SO 135 10,5 C 14,9 C 4,2 km/h (1 Bft)
25.09.2013 21:35 13,9 C 81 % 1016,1 hPa 0,0 l/m 3,9 km/h (1 Bft) SO 135 10,7 C 14,9 C 3,2 km/h (1 Bft)
25.09.2013 21:40 13,6 C 80 % 1016,1 hPa 0,0 l/m 3,2 km/h (1 Bft) S 180 10,2 C 14,9 C 2,7 km/h (1 Bft)
25.09.2013 21:45 13,5 C 81 % 1016,1 hPa 0,0 l/m 3,2 km/h (1 Bft) SW 225 10,3 C 14,8 C 3,1 km/h (1 Bft)
25.09.2013 21:50 13,6 C 81 % 1016,0 hPa 0,0 l/m 3,2 km/h (1 Bft) SO 135 10,4 C 14,7 C 2,7 km/h (1 Bft)
25.09.2013 21:55 13,3 C 81 % 1016,0 hPa 0,0 l/m 3,1 km/h (1 Bft) SO 135 10,1 C 14,6 C 3,2 km/h (1 Bft)
25.09.2013 22:00 13,1 C 81 % 1016,0 hPa 0,0 l/m 1,8 km/h (1 Bft) SO 135 9,9 C 14,4 C 1,9 km/h (1 Bft)
25.09.2013 22:05 13,2 C 81 % 1016,0 hPa 0,0 l/m 1,6 km/h (1 Bft) O-SO 112 10,0 C 14,3 C 0,0 km/h (0 Bft)
25.09.2013 22:10 13,3 C 82 % 1016,1 hPa 0,0 l/m 1,1 km/h (1 Bft) S 180 10,3 C 14,1 C 1,6 km/h (1 Bft)
25.09.2013 22:15 13,6 C 82 % 1016,1 hPa 0,0 l/m 1,9 km/h (1 Bft) SO 135 10,6 C 14,4 C 3,2 km/h (1 Bft)
25.09.2013 22:20 13,6 C 82 % 1016,1 hPa 0,0 l/m 2,4 km/h (1 Bft) S 180 10,6 C 14,6 C 3,5 km/h (1 Bft)
25.09.2013 22:25 13,7 C 82 % 1016,1 hPa 0,0 l/m 2,6 km/h (1 Bft) SO 135 10,7 C 14,7 C 3,4 km/h (1 Bft)
25.09.2013 22:30 13,5 C 82 % 1016,2 hPa 0,0 l/m 1,6 km/h (1 Bft) S-SO 157 10,5 C 14,9 C 2,3 km/h (1 Bft)
25.09.2013 22:35 13,6 C 82 % 1016,2 hPa 0,0 l/m 1,1 km/h (1 Bft) S-SO 157 10,6 C 14,9 C 2,3 km/h (1 Bft)
25.09.2013 22:40 13,3 C 82 % 1016,2 hPa 0,0 l/m 1,3 km/h (1 Bft) S 180 10,3 C 14,7 C 2,4 km/h (1 Bft)
25.09.2013 22:45 13,3 C 82 % 1016,2 hPa 0,0 l/m 1,4 km/h (1 Bft) S 180 10,3 C 14,6 C 2,7 km/h (1 Bft)
25.09.2013 22:50 13,6 C 83 % 1016,2 hPa 0,0 l/m 2,1 km/h (1 Bft) SO 135 10,8 C 14,6 C 2,3 km/h (1 Bft)
25.09.2013 22:55 13,6 C 83 % 1016,2 hPa 0,0 l/m 2,3 km/h (1 Bft) O-SO 112 10,8 C 14,6 C 1,9 km/h (1 Bft)
25.09.2013 23:00 13,8 C 83 % 1016,2 hPa 0,0 l/m 2,3 km/h (1 Bft) S-SO 157 11,0 C 14,7 C 3,9 km/h (1 Bft)
25.09.2013 23:05 13,7 C 82 % 1016,2 hPa 0,0 l/m 2,3 km/h (1 Bft) W 270 10,7 C 14,8 C 5,1 km/h (1 Bft)
25.09.2013 23:10 13,8 C 82 % 1016,1 hPa 0,0 l/m 2,4 km/h (1 Bft) O-SO 112 10,8 C 14,9 C 2,7 km/h (1 Bft)
25.09.2013 23:15 13,7 C 82 % 1016,1 hPa 0,0 l/m 1,9 km/h (1 Bft) S-SO 157 10,7 C 14,9 C 1,9 km/h (1 Bft)
25.09.2013 23:20 13,6 C 81 % 1016,1 hPa 0,0 l/m 0,6 km/h (0 Bft) S-SO 157 10,4 C 14,8 C 0,0 km/h (0 Bft)
25.09.2013 23:25 13,4 C 81 % 1016,1 hPa 0,0 l/m 0,5 km/h (0 Bft) SO 135 10,2 C 14,7 C 0,0 km/h (0 Bft)
25.09.2013 23:30 13,2 C 81 % 1016,1 hPa 0,0 l/m 0,5 km/h (0 Bft) S 180 10,0 C 14,4 C 1,8 km/h (1 Bft)
25.09.2013 23:35 12,9 C 82 % 1016,1 hPa 0,0 l/m 0,6 km/h (0 Bft) O-SO 112 9,9 C 14,2 C 0,0 km/h (0 Bft)
25.09.2013 23:40 13,0 C 81 % 1016,1 hPa 0,0 l/m 0,5 km/h (0 Bft) S 180 9,8 C 13,9 C 1,9 km/h (1 Bft)
25.09.2013 23:45 12,7 C 82 % 1016,1 hPa 0,0 l/m 0,3 km/h (0 Bft) O-SO 112 9,7 C 13,9 C 1,8 km/h (1 Bft)
25.09.2013 23:50 12,5 C 83 % 1016,2 hPa 0,0 l/m 0,2 km/h (0 Bft) S 180 9,7 C 13,3 C 0,0 km/h (0 Bft)
25.09.2013 23:55 12,5 C 83 % 1016,2 hPa 0,0 l/m 0,6 km/h (0 Bft) S-SO 157 9,7 C 13,2 C 2,9 km/h (1 Bft)
_ Min-Zeit 05:50 12:30 19:05 - 08:30 - - 05:50 05:55 23:50
Minimum _ 4,8 C 40 % 1015,2 hPa - 0,0 km/h (0 Bft) - - 3,9 C 5,0 C 0,0 km/h (0 Bft)
_ Max-Zeit 12:20 09:05 11:45 23:55 17:35 - - 10:10 12:15 17:40
Maximum _ 23,3 C 95 % 1017,4 hPa 0,0 l/m 12,1 km/h
S-SW (2 Bft)
- - 13,6 C 26,5 C 23,3 km/h
SO (4 Bft)
Durchschnitt _ 13,2 C 76 % 1016,3 hPa #0,0 l/m 3,0 km/h (1 Bft) S - 8,4 C 14,9 C 4,0 km/h (1 Bft)